User: anonymous   Login
Location: Unspecified
(0.0000°N, 0.0000°E)
Time: 07:00:43
(UTC+00:00)
Language:

SCD-1 - Orbit

View from above orbital plane
View from above orbital plane
View from above satellite
View from above satellite

Ground track
Ground track

The orbit data is extracted from the following two-line orbital elements,

1 22490U 93009B   18350.91204528 +.00000219 +00000-0 +10201-4 0  9996
2 22490 024.9683 170.6788 0043029 357.3326 117.9323 14.44539175364603
Epoch (UTC): 16 December 2018 21:53:20
Eccentricity: 0.0043029
inclination: 24.9683°
perigee height: 713 km
apogee height: 774 km
right ascension of ascending node: 170.6788°
argument of perigee: 357.3326°
revolutions per day: 14.44539175
mean anomaly at epoch: 117.9323°
orbit number at epoch: 36460

The dashed part of the orbit path shows where the satellite is in the earth's shadow,  

DLR